Orbital Elements at Epoch 2459200.5 (2020-Dec-17.0) TDB
Reference: JPL 38 (heliocentric ecliptic J2000)
Element | Value | Uncertainty (1-sigma) | Units |
e | .09596820661617583 | 3.4795e-08 | |
a | 2.592897590276831 | 1.0525e-08 | au |
q | 2.34406185859856 | 9.0514e-08 | au |
i | 8.627629878761251 | 3.2644e-06 | deg |
node | 101.6291120567965 | 2.5775e-05 | deg |
peri | 107.2935895362277 | 3.2067e-05 | deg |
M | 197.1756491008925 | 2.1333e-05 | deg |
tp | 2459890.252570743093 (2022-Nov-06.75257074) | 9.2658e-05 | TDB |
period | 1525.023278743957 4.18 | 9.2856e-06 2.542e-08 | d yr |
n | .2360619703434979 | 1.4373e-09 | deg/d |
Q | 2.841733321955102 | 1.1535e-08 | au |
|
| | Orbit Determination Parameters
Additional Information
|